Weather History for Cross City, FL

Change the Weather History Date:

Sunday, June 16, 2013

  Actual Average Record
Temperature  
Mean Temperature 82 °F 80 °F  
Max Temperature 92 °F 91 °F 96 °F (2011)
Min Temperature 72 °F 70 °F 63 °F (2012)
Degree Days  
Heating Degree Days 0 0  
Month to date heating degree days 0 0  
Since 1 June heating degree days 0 0  
Since 1 July heating degree days 1133 1306  
Cooling Degree Days 17 15  
Month to date cooling degree days 250 231  
Year to date cooling degree days 785 710  
Since 1 June cooling degree days 250 231  
Growing Degree Days 32 (Base 50)    
Moisture  
Dew Point 72 °F    
Average Humidity 73    
Maximum Humidity 90    
Minimum Humidity 56    
Precipitation  
Precipitation 0.07 in 0.20 in 0.19 in (2014)
Month to date precipitation 5.72 2.37  
Year to date precipitation 18.26 19.54  
Sea Level Pressure  
Sea Level Pressure 30.07 in    
Wind  
Wind Speed 3 mph (NNW)    
Max Wind Speed 10 mph    
Max Gust Speed 14 mph    
T = Trace of Precipitation, MM = Missing Value Source: NWS Daily Summary

Daily Weather History Graph

Daily Weather History Graph

Search for Another Location

Airport:

Trip Planner

Search our weather history database for the weather conditions in past years. The results will help you decide how hot, cold, wet, or windy it might be!

Date:

Astronomy

Jun. 16, 2013 Rise Set
Actual Time 6:31 AM EDT 8:34 PM EDT
Civil Twilight 6:04 AM EDT 9:01 PM EDT
Nautical Twilight 5:31 AM EDT 9:35 PM EDT
Astronomical Twilight 4:56 AM EDT 10:10 PM EDT
Moon 1:35 PM EDT (6/16) 1:07 AM EDT (6/16)
Length of Visible Light 14h 57m
Length of Day
14h 02m
Waxing Crescent, 49% of the Moon is Illuminated
Jun 16
Waxing Crescent
Jun 16
First Quarter
Jun 23
Full
Jun 30
Last Quarter
Jul 8
New

Hourly Weather History & Observations

Time (EDT) Temp. Heat Index Dew Point Humidity Pressure Visibility Wind Dir Wind Speed Gust Speed Precip Events Conditions
12:53 AM 75.0 °F - 66.9 °F 76% 30.08 in - Calm Calm - N/A   Unknown
1:53 AM 73.0 °F - 66.9 °F 81% 30.08 in - Calm Calm - N/A   Unknown
2:53 AM 73.9 °F - 68.0 °F 82% 30.07 in - Calm Calm - N/A   Unknown
3:53 AM 73.9 °F - 68.0 °F 82% 30.07 in - NE 3.5 mph - 0.01 in   Unknown
4:53 AM 73.0 °F - 68.0 °F 84% 30.07 in - Calm Calm - N/A   Unknown
5:53 AM 72.0 °F - 68.0 °F 87% 30.08 in - Calm Calm - N/A   Unknown
6:53 AM 72.0 °F - 68.0 °F 87% 30.09 in - Calm Calm - N/A   Unknown
7:53 AM 75.9 °F - 70.0 °F 82% 30.09 in - Calm Calm - 0.01 in   Unknown
8:53 AM 80.1 °F 83.6 °F 71.1 °F 74% 30.11 in - Variable 6.9 mph - N/A   Unknown
9:53 AM 82.9 °F 88.8 °F 73.0 °F 72% 30.11 in - Variable 6.9 mph - N/A   Unknown
10:53 AM 84.0 °F 91.2 °F 73.9 °F 72% 30.10 in - Variable 4.6 mph - N/A   Unknown
11:53 AM 86.0 °F 93.0 °F 73.0 °F 65% 30.09 in - Variable 4.6 mph - N/A   Unknown
12:53 PM 88.0 °F 96.5 °F 73.9 °F 63% 30.08 in - Calm Calm - N/A   Unknown
1:53 PM 84.9 °F 93.3 °F 75.0 °F 72% 30.08 in - WNW 8.1 mph - N/A   Unknown
2:53 PM 87.1 °F 98.8 °F 77.0 °F 72% 30.06 in - WNW 5.8 mph - N/A   Unknown
3:53 PM 88.0 °F 97.5 °F 75.0 °F 65% 30.04 in - NW 4.6 mph - N/A   Unknown
4:53 PM 90.0 °F 96.9 °F 72.0 °F 55% 30.02 in - Variable 4.6 mph - N/A   Unknown
5:53 PM 84.9 °F 92.1 °F 73.9 °F 69% 30.02 in - SE 3.5 mph - N/A   Unknown
6:53 PM 82.9 °F 90.2 °F 75.0 °F 77% 30.04 in - South 3.5 mph - N/A   Unknown
7:53 PM 81.0 °F 86.2 °F 73.9 °F 79% 30.04 in - Variable 3.5 mph - N/A   Unknown
8:53 PM 80.1 °F 85.1 °F 75.0 °F 85% 30.06 in - ENE 3.5 mph - 0.01 in   Unknown
9:53 PM 78.1 °F - 73.9 °F 87% 30.06 in - Calm Calm - 0.01 in   Unknown
10:53 PM 77.0 °F - 73.9 °F 90% 30.08 in - Calm Calm - 0.01 in   Unknown
11:53 PM 77.0 °F - 73.9 °F 90% 30.09 in - Calm Calm - 0.01 in   Unknown